Tracking 27420 objects as of 10-Jun-2023
HD Live streaming from Space Station
objects crossing your sky now

SOLRAD 11A AKM

Track SOLRAD 11A AKM now!


NORAD ID: 8752
Int'l Code: 1976-023G
Perigee: 36,305.6 km
Apogee: 102,695.2 km
Inclination: 21.9 °
Period: 3,466.4 minutes
Semi major axis: 75871 km
RCS: Unknown
Launch date: March 15, 1976
Source: United States (US)
Launch site: AIR FORCE EASTERN TEST RANGE (AFETR)

Note: This is a ROCKET BODY
Your satellite tracking list
Your tracking list is empty




NASA's NSSDC Master Catalog

Two Line Element Set (TLE):
1 08752U 76023G   23154.43562434 -.00000467  00000-0  00000-0 0  9994
2 08752  21.8607 353.3874 4375137  41.7275   0.3521  0.41541833 76965
Source of the keplerian elements: AFSPC